Погода в Коржинском

Россия / Республика Коми     60°24′56″N   48°34′31″E
темп.,
°C
ветер,
м/с
пор.,
м/с
влажн.,
%
обл.,
%
осадки,
мм/ч
давл.,
гПа
погр.,
м
16 сентября, чт
чт1600:00+3ссз3898100 0.9 1005885
03:00+4ссз3898100 1.2 1006864
06:00+4ссз41098100 0.1 1007895
09:00+5ссз41095100 0.1 1008891
12:00+6ссз4988100 0.1 10101039
15:00+7ссз4985100 0.3 1011975
18:00+6ссз4986100 0.1 1012759
21:00+5ссз4986100 0.1 1012694
17 сентября, пт
пт1700:00+4ссз3887100 0.0 1013636
03:00+4сз3987100 0.0 1013509
06:00+3сз3990100 0.0 1013478
09:00+4ссз3797100 0.4 1014652
12:00+4сз3698100 1.3 1015610
15:00+4сз2798100 1.6 1015366
18:00+4ссв4993100 0.3 1016658
21:00+3ссз3992100 0.4 1018360
18 сентября, сб
сб1800:00+2с399292 0.1 1019444
03:00+2сз31092100 0.1 1020406
06:00+2сз41093100 0.1 1020499
09:00+3ссз4880100 0.1 10211080
12:00+3ссз4876100 0.1 1022858
15:00+4ссз5968100 0.1 10221363
18:00+4сз497487 0.0 1022977
21:00+3сз41278100 0.0 1022736
19 сентября, вс
вс1900:00+2сз4118850 0.0 1022570
03:00+2сз41091100 0.0 1022604
06:000ссз4109099 0.0 1023616
09:00+4ссз4870100 0.0 10241127
12:00+4ссз4765100 0.0 10251252
15:00+5ссз4763100 0.0 10251337
18:00+4ссз3770100 0.0 1026470
21:00+3ссз2772100 0.0 1026376
20 сентября, пн
пн2000:00+3ссв2569100 0.0 1028325
03:00+3ссв2569100 0.0 1029247
06:00+3ссв2466100 0.0 1030212
09:00+4св356712 0.0 1031748
12:00+7св235378 0.0 10311301
15:00+8св245020 0.0 10301337
18:00+3св22765 0.0 103122
21:00+1св22875 0.0 103220